Regional Weather Roundup
Issued by NWS

Home | Current Version | Previous Version | Text Only | Print | Product List | Glossary Off
Versions: 1 2 3 4 5 6 7 8 9 10 11 12 13 14 15 16 17 18 19 20 21 22 23 24 25 26 27 28 29 30 31 32 33 34 35 36 37 38 39 40 41 42 43 44 45 46 47 48 49 50

000
ASUS43 KBIS 241231
RWRND
NORTH DAKOTA REGIONAL WEATHER ROUNDUP
NATIONAL WEATHER SERVICE EASTERN NORTH DAKOTA/GRAND FORKS ND
700 AM CDT SAT JUN 24 2017

  NOTE: "FAIR" INDICATES FEW OR NO CLOUDS BELOW 12,000 FEET WITH NO
  SIGNIFICANT WEATHER AND/OR OBSTRUCTIONS TO VISIBILITY.

NDZ001>003-009>011-017-241300-
...NORTHWEST NORTH DAKOTA...

CITY           SKY/WX    TMP DP  RH WIND       PRES   REMARKS
WILLISTON      FAIR      47  36  65 NW14      30.23R
6HR MIN TEMP:  45; 6HR MAX TEMP:  52;

MINOT          CLOUDY    47  41  80 NW14      30.13R
MINOT AFB      CLOUDY    46  41  83 NW18      30.12R
6HR MIN TEMP:  43; 6HR MAX TEMP:  48;

$$

NDZ018>021-031>035-040>046-241300-
...SOUTHWEST NORTH DAKOTA...

CITY           SKY/WX    TMP DP  RH WIND       PRES   REMARKS
BISMARCK       FAIR      50  40  68 NW12      30.15R
DICKINSON      FAIR      43  35  73 NW9       30.19R
GARRISON         N/A     44  40  85 NW13      30.14R
HETTINGER      MOCLDY    47  33  58 NW9       30.22R
$$

NDZ004>008-012>016-024-026-027-054-241300-
...NORTHEAST NORTH DAKOTA...

CITY           SKY/WX    TMP DP  RH WIND       PRES   REMARKS
GRAND FORKS    PTSUNNY   51  47  86 NW12      29.98R
GRAND FORKS AF LGT RAIN  50  48  93 NW9       29.99S
DEVILS LAKE    PTSUNNY   47  43  86 NW13      30.04R
$$

NDZ022-023-025-028>030-036>039-047>053-241300-
...SOUTHEAST NORTH DAKOTA...

CITY           SKY/WX    TMP DP  RH WIND       PRES   REMARKS
JAMESTOWN      FAIR      48  41  76 NW17G25   30.05S
FARGO          FAIR      52  42  69 W14       30.00R
WAHPETON       CLOUDY    50  41  71 W10       30.03S
$$



USA.gov is the U.S. government's official web portal to all federal, state and local government web resources and services.